Location: Risskov
(56.1972°N, 10.2480°E)
Time: 22:36:19
(UTC+00:00)

Helios 1A - Pass Details

Date: 05 July 2020
Orbit: 587 x 600 km, 98.2° (Epoch: 11 August)

Event Time Altitude Azimuth Distance (km) Brightness Sun altitude
Exits shadow 23:24:49 16° 185° (S) 1,553 4.4 -11.1°
Maximum altitude 23:27:57 53° 259° (WSW) 733 3.3 -11.1°
Drops below altitude 10° 23:32:03 10° 337° (NNW) 1,929 6.7 -11.1°
Sets 23:34:17 0° 342° (NNW) 2,837 7.9 -11.1°
